Syracuse, NY

5:15 AM EST on November 22, 2017 (GMT -0500)
Syracuse Hancock International

Weather History for KSYR - March, 2014

Change the Weather History Date:

Thursday, March 6, 2014

  Actual Average Record
Temperature  
Mean Temperature 9 °F 30 °F  
Max Temperature 26 °F 39 °F 67 °F (1946)
Min Temperature -8 °F 22 °F -10 °F (1948)
Degree Days  
Heating Degree Days 56 35  
Month to date heating degree days 309 212  
Since 1 July heating degree days 5401 5043  
Cooling Degree Days 0 0  
Month to date cooling degree days 0 0  
Year to date cooling degree days 0 0  
Moisture  
Dew Point -3 °F    
Average Humidity 59    
Maximum Humidity 87    
Minimum Humidity 31    
Precipitation  
Precipitation 0.00 in 0.09 in 1.45 in (1932)
Month to date precipitation 0.19 0.51  
Year to date precipitation 5.74 5.08  
Snow  
Snow 0.00 in 0.70 in 7.60 in (1999)
Month to date snowfall 4.9 4.8  
Since 1 July snowfall 114.8 106.7  
Snow Depth 9.00 in    
Sea Level Pressure  
Sea Level Pressure 30.56 in    
Wind  
Wind Speed 5 mph (ENE)    
Max Wind Speed 13 mph    
Max Gust Speed 22 mph    
Visibility 10 miles    
Events      
T = Trace of Precipitation, MM = Missing Value Source: NWS Daily Summary

Daily Weather History Graph

Daily Weather History Graph

Search for Another Location

Airport or City:

Trip Planner

Search our weather history database for the weather conditions in past years. The results will help you decide how hot, cold, wet, or windy it might be!

Date:

Astronomy

Mar. 06, 2014 Rise Set
Actual Time 6:32 AM EST 5:59 PM EST
Civil Twilight 6:03 AM EST 6:28 PM EST
Nautical Twilight 5:30 AM EST 7:01 PM EST
Astronomical Twilight 4:57 AM EST 7:34 PM EST
Moon 9:29 AM EST (3/6) No Moon Set
Length of Visible Light 12h 24m
Length of Day
11h 27m
Waxing Crescent, 32% of the Moon is Illuminated
Mar 6
Waxing Crescent
Mar 8
First Quarter
Mar 16
Full
Mar 23
Last Quarter
Mar 30
New

Hourly Weather History & Observations

Time (EST) Temp. Windchill Dew Point Humidity Pressure Visibility Wind Dir Wind Speed Gust Speed Precip Events Conditions
12:54 AM 3.0 °F -6.4 °F -2.0 °F 80% 30.61 in 10.0 mi North 4.6 mph - N/A   Clear
1:54 AM -0.0 °F - -5.1 °F 79% 30.61 in 10.0 mi Calm Calm - N/A   Partly Cloudy
2:54 AM 1.0 °F - -2.9 °F 83% 30.63 in 10.0 mi Calm Calm - N/A   Partly Cloudy
3:54 AM -2.0 °F - -5.1 °F 87% 30.63 in 10.0 mi Calm Calm - N/A   Partly Cloudy
4:54 AM -2.9 °F -11.2 °F -7.1 °F 82% 30.64 in 10.0 mi ESE 3.5 mph - N/A   Partly Cloudy
5:54 AM -7.1 °F - -11.0 °F 83% 30.66 in 10.0 mi Calm Calm - N/A   Partly Cloudy
6:54 AM -6.0 °F - -11.0 °F 79% 30.68 in 10.0 mi Calm Calm - N/A   Clear
7:54 AM -2.9 °F -11.2 °F -7.1 °F 82% 30.68 in 10.0 mi East 3.5 mph - N/A   Partly Cloudy
8:54 AM 3.9 °F -5.3 °F -2.9 °F 73% 30.69 in 9.0 mi East 4.6 mph - N/A   Clear
9:54 AM 9.0 °F - -0.0 °F 67% 30.68 in 10.0 mi Calm Calm - N/A   Clear
10:54 AM 14.0 °F - -0.0 °F 54% 30.64 in 10.0 mi Calm Calm - N/A   Clear
11:54 AM 18.0 °F 9.8 °F -0.9 °F 44% 30.61 in 10.0 mi East 5.8 mph - N/A   Scattered Clouds
12:54 PM 19.9 °F 10.1 °F 1.0 °F 44% 30.58 in 10.0 mi East 8.1 mph - N/A   Clear
1:54 PM 23.0 °F 15.8 °F 1.9 °F 40% 30.54 in 10.0 mi East 5.8 mph - N/A   Clear
2:54 PM 25.0 °F 18.1 °F 3.0 °F 39% 30.52 in 10.0 mi NNE 5.8 mph - N/A   Clear
3:54 PM 25.0 °F 14.8 °F 1.0 °F 36% 30.49 in 10.0 mi ENE 10.4 mph - N/A   Clear
4:54 PM 25.0 °F 15.5 °F -0.0 °F 34% 30.47 in 10.0 mi ENE 9.2 mph - N/A   Scattered Clouds
5:54 PM 24.1 °F 18.2 °F -0.9 °F 34% 30.46 in 10.0 mi NE 4.6 mph - N/A   Scattered Clouds
6:54 PM 21.0 °F 13.4 °F -5.1 °F 32% 30.45 in 10.0 mi East 5.8 mph - N/A   Partly Cloudy
7:54 PM 19.9 °F 10.1 °F -2.9 °F 37% 30.43 in 10.0 mi East 8.1 mph - N/A   Clear
8:54 PM 19.0 °F 12.3 °F -2.9 °F 38% 30.43 in 10.0 mi East 4.6 mph - N/A   Clear
9:54 PM 16.0 °F 7.4 °F -2.9 °F 43% 30.43 in 10.0 mi East 5.8 mph - N/A   Clear
10:54 PM 16.0 °F 5.3 °F -0.9 °F 47% 30.40 in 10.0 mi East 8.1 mph - N/A   Clear
11:54 PM 12.9 °F 0.7 °F -0.9 °F 54% 30.38 in 10.0 mi East 9.2 mph - N/A   Partly Cloudy